www.pogodaiklimat.ru

ПОГОДА в Питт-Гринвилле, NC

  • Прогноз погоды в Питт-Гринвилле
  • Монитор погоды в Питт-Гринвилле
  • Климат в Питт-Гринвилле

АРХИВ ПОГОДЫ в Питт-Гринвилле

Время (UTC), дата Ветер
(напр.,м/с)
 
Видим.   Явления Облачность Т
(С)
Тd
(С)
f
(%)
Тe
(С)
Тes
(С)
Комфортность

P
(гПа)

Po
(гПа)
Тmin
(С)
Tmax
(С)
R
(мм)
SD
(см)
04:40 26.03 СЗ  11 км  слабый дождь  10/10 150 м  +13.0  +13.0  100  +12  +12      1012.8         
05:00 26.03   8 км  дождь  10/10 150 м  +13.0  +13.0  100  +12  +12      1012.5         
05:20 26.03   11 км  слабый дождь  10/10 90 м  +13.0  +13.0  100  +12  +12      1012.1         
05:40 26.03 С  11 км  морось  10/10 150 м  +13.0  +13.0  100  +11  +11               
06:00 26.03 С  16 км    10/10 150 м  +12.0  +12.0  100  +9  +9      1012.8         
06:20 26.03 С  16 км  слабый дождь  10/10 150 м  +11.0  +11.0  100  +7  +7      1013.1         
06:40 26.03 С  7
{10} 
16 км  слабый дождь  10/10 210 м  +10.0  +9.0  93  +6  +6      1013.5         
07:00 26.03 С  8
{11} 
16 км    10/10 210 м  +9.0  +8.0  93  +4  +4      1013.1         
07:20 26.03 С  6
{10} 
16 км    10/10 270 м  +9.0  +8.0  93  +5  +5      1013.5         
07:40 26.03 С  6
{11} 
16 км    10/10 270 м  +8.0  +8.0  100  +3  +3      1013.8         
08:00 26.03 С  16 км    10/10 270 м  +8.0  +7.0  93  +3  +3      1013.8         
08:20 26.03 С  7
{9} 
16 км    10/10 270 м  +8.0  +7.0  93  +3  +3      1014.5         
08:40 26.03 С  16 км    10/10 270 м  +8.0  +7.0  93  +3  +3      1014.8         
09:00 26.03 С  8
{10} 
16 км    10/10 270 м  +8.0  +7.0  93  +3  +3      1015.2         
09:20 26.03 С  7
{11} 
16 км    10/10 270 м  +8.0  +7.0  93  +3  +3      1015.9         
09:40 26.03 С  8
{11} 
16 км    10/10 330 м  +7.0  +6.0  93  +1  +1      1016.2         
10:00 26.03 С  9
{12} 
16 км  слабая морось  10/10 390 м  +7.0  +6.0  93  +1  +1      1016.9         
10:20 26.03 С  16 км  дождь  10/10 390 м  +7.0  +6.0  93  +2  +2      1016.9         
10:40 26.03 СВ  7
{8} 
16 км  слабая морось  10/10 390 м  +7.0  +6.0  93  +2  +2      1017.2         
11:00 26.03 СВ  16 км    10/10 390 м  +7.0  +6.0  93  +2  +2      1017.5         
11:20 26.03 С  16 км  слабая морось  10/10 390 м  +7.0  +6.0  93  +2  +2      1018.2         
11:40 26.03 С  16 км    10/10 450 м  +7.0  +6.0  93  +3  +3      1018.6         
12:00 26.03 С  6
{8} 
16 км    10/10 510 м  +7.0  +6.0  93  +2  +2      1018.9         
12:20 26.03 С  8
{10} 
16 км    10/10 510 м  +7.0  +6.0  93  +2  +2      1019.2         
12:40 26.03 СВ  6
{11} 
16 км    10/10 510 м  +8.0  +6.0  87  +3  +3      1019.6         
13:00 26.03 СВ  7
{10} 
16 км    10/10 510 м  +8.0  +6.0  87  +3  +3      1019.9         
13:20 26.03 СВ  5
{10} 
16 км    8/8 510 м  +8.0  +5.0  81  +4  +4      1020.2         
13:40 26.03 С  8
{10} 
16 км    8/8 540 м  +8.0  +5.0  81  +3  +3      1020.2         
14:00 26.03 СВ  7
{9} 
16 км    8/8 540 м  +9.0  +5.0  76  +5  +5      1020.6         
14:20 26.03 СВ  8
{13} 
16 км    8/8 720 м  +9.0  +3.0  66  +5  +5      1020.6         
14:40 26.03 С  9
{11} 
16 км    8/8 870 м  +10.0  +3.0  62  +6  +6      1020.6         
15:00 26.03 С  16 км    5/5 870 м  +11.0  +3.0  58  +7  +7      1020.6         
15:20 26.03 СВ  8
{11} 
16 км    ясно  +11.0  +1.0  50  +8  +9      1020.9         
15:40 26.03 СВ  9
{12} 
16 км    ясно  +11.0  0.0  47  +7  +8      1020.9         
16:00 26.03 С  9
{11} 
16 км    ясно  +12.0  0.0  44  +9  +9      1020.9         
16:20 26.03 С  7
{11} 
16 км    ясно  +12.0  0.0  44  +9  +12      1020.9         
16:40 26.03 С  8
{11} 
16 км    ясно  +12.0  0.0  44  +9  +11      1020.9         
17:00 26.03 СВ  7
{10} 
16 км    ясно  +13.0  -1.0  38  +10  +13      1020.9         
17:20 26.03 С  7
{11} 
16 км    ясно  +13.0  -2.0  35  +11  +13      1020.9         
17:40 26.03 СВ  7
{11} 
16 км    ясно  +13.0  -4.0  30  +11  +13      1020.9         
18:00 26.03 С  9
{11} 
16 км    ясно  +13.0  -3.0  33  +10  +10      1020.9         
18:20 26.03 СВ  8
{12} 
16 км    ясно  +13.0  -3.0  33  +10  +11      1020.9         
18:40 26.03 СВ  8
{11} 
16 км    ясно  +13.0  -5.0  28  +10  +12      1020.9         
19:00 26.03 С  8
{11} 
16 км    ясно  +13.0  -4.0  30  +10  +11      1020.9         
19:20 26.03 С  8
{10} 
16 км    ясно  +13.0  -5.0  28  +10  +11      1020.9         
19:40 26.03 С  7
{9} 
16 км    ясно  +13.0  -5.0  28  +11  +12      1020.9         
20:00 26.03 С  16 км    ясно  +13.0  -4.0  30  +11  +14      1021.3         
20:20 26.03 С  6
{8} 
16 км    ясно  +13.0  -4.0  30  +11  +12      1021.3         

 

Местоположение метеостанции Pitt-Greenville Airport: широта 35.6333 долгота -77.4000 высота над уровнем моря 8 м.

В архиве по умолчанию представлена погода в Питт-Гринвилле за последние 1-2 суток. Обновление информации о фактической погоде в базе происходит ежечасно! Архивные данные за месяц целиком и за предыдущие месяцы Вы можете получить, выбрав интересующий диапазон дат из раскрывающегося списка и нажав кнопку "Ввод!".

Внимание! Архив погоды МЕТАР в базе сайта хранится не более 60 дней. Нет смысла пытаться выбрать более раннюю дату.

Внимание! Время в таблицах - всемирное. Для получения местного времени необходимо прибавить поправку, которая в Питт-Гринвилле равна -5 ч.

Ветер - указаны скорость ветра в м/с и направление, откуда дует ветер: С - северный, СВ - северо-восточный, В - восточный, ЮВ - юго-восточный, Ю - южный, ЮЗ - юго-западный, З - западный, СЗ - северо-западный.
Видимость - горизонтальная дальность видимости в метрах или километрах. При видимости от 1 до 10 км при отсутствии осадков обычно наблюдается дымка, при ухудшении видимости до 1 км и менее - туман. В сухую погоду видимость может ухудшаться дымом, пылью или мглою.
Атмосферные явления - указаны явления, наблюдавшиеся в указанный момент времени.
Облачность - указаны через наклонную черту верхняя и нижняя облачность в баллах и высота нижней границы облаков в метрах. Внимание: облачность, как и прочие метеорологические величины в США измеряются автоматическими метеостанциями. Указанные значения в баллах носят условный характер и показывают процент времени, в течение которого, в среднем, лазерный луч высотомера отражался от облаков обратно.
T - Температура воздуха - температура, измеренная на высоте 2 м над землей.
Td - Температура точки росы - температура, при понижении до которой содержащийся в воздухе водяной пар достигнет насыщения.
f - Относительная влажность воздуха - влажноcть воздуха, измеренная на высоте 2 м над землей.
Te - Эффективная температура - температура, которую ощущает одетый по сезону человек в тени. Характеристика душности погоды. При расчете учитывается влияние влажности воздуха и скорости ветра на теплоощущения человека.
Tes - Эффективная температура на солнце - температура, которую ощущает человек, с поправкой на солнечный нагрев. Характеристика знойности погоды. Зависит от высоты солнца над горизонтом, облачности и скорости ветра. Ночью, в пасмурную погоду, а также при ветре 12 м/с и более поправка равна нулю.
P - Атмосферное давление - приведенное к уровню моря атмосферное давление.
Po - Атмосферное давление - измеренное на уровне метеостанции атмосферное давление.
Tmin - Минимальная температура - минимум температуры воздуха на высоте 2 м над землей.
Tmax - Максимальная температура - максимум температуры воздуха на высоте 2 м над землей.
R - Количество осадков - Количество выпавших осадков за 3 или 6 часов, мм.
SD - Снежный покров - Высота снежного покрова, см.